Back to catalog

SL-8 DEB

AliveLEO
NORAD 21212·DEBRIS·🇷🇺 Russia

Launched Feb 12, 1991 from Plesetsk Cosmodrome

Loading…

Next Passes (next 24 hours)

TLE

FreshSource: Space-Track

Epoch: Sep 14, 2026, 09:10 UTC

1 21212U 91009BF  26257.38194937 -.00000019  00000-0 -75840-4 0  9993
2 21212  74.1539 225.2588 0231118  98.6373  53.8248 12.06914595562468

Track SL-8 DEB in real time with AllMySat

Download on the App Store